Weather in Troitsk

Russia / Moscow Oblast     55˚29′05″N   37˚18′20″E
temp.,
°C
wind,
m/s
gust,
m/s
humid.,
%
clouds,
%
prec.,
mm/h
press.,
hPa
HPBL,
m
17 january, sun
sun1700:00−19˚nnw4995100 1.2 1009500
03:00−20˚nnw4895100 1.3 1011416
06:00−23˚nnw4896100 0.1 1012282
09:00−26˚nnw259898 0.1 1014107
12:00−22˚n259684 0.0 1016242
15:00−20˚nnw249688 0.0 1016218
18:00−23˚n239866 0.0 101822
21:00−24˚n229849 0.0 101921
18 january, mon
mon1800:00−23˚nne229845 0.0 102020
03:00−23˚nnw019972 0.0 102020
06:00−25˚wsw019970 0.0 102020
09:00−25˚wnw0010047 0.0 102020
12:00−19˚n019483 0.0 1021105
15:00−18˚nnw119591 0.0 101965
18:00−20˚wsw1197100 0.0 101920
21:00−20˚wsw0196100 0.0 101920
19 january, tue
tue1900:00−18˚wnw1195100 0.0 101920
03:00−18˚wnw1294100 0.0 101924
06:00−18˚wnw1194100 0.0 101820
09:00−18˚wnw1192100 0.0 101820
12:00−15˚wnw1289100 0.0 1018187
15:00−14˚wnw1292100 0.0 1017239
18:00−15˚wnw1297100 0.0 101723
21:00−15˚wnw2297100 0.2 101741
20 january, wed
wed2000:00−15˚nw229797 0.1 101857
03:00−17˚wnw229890 0.1 101820
06:00−18˚wnw239888 0.0 101930
09:00−18˚wnw229887 0.1 102025
12:00−14˚w239480 0.0 1021143
15:00−13˚wsw249571 0.0 1021182
18:00−17˚wsw239618 0.0 102233
21:00−18˚sw33979 0.0 102258
21 january, thu
thu2100:00−18˚sw36960 0.0 1022107
03:00−18˚ssw499135 0.0 1021189
06:00−17˚ssw4118875 0.0 1019253
09:00−14˚ssw6148988 0.0 1017372
12:00−9˚ssw61493100 0.3 1014540
15:00−7˚sw71491100 0.8 1012599
18:00−6˚sw61589100 0.1 1011549
21:00−3˚sw71592100 0.2 1009518